Date String (YYYY-MM-DD hh:mm:ss) UTC,Instrument flags,Ambient pressure (hPa),Sample flow (lpm),Bypass flow (lpm),Sample temperature (°C),Ambient temperature (°C),ASC tube jacket temperature (°C),LED temperature (°C),Box temperature (°C),Sample RH (%),Span deviation,Mass concentration (μg/m³),Mass concentration (μg/m³),Mass concentration (μg/m³)
DateTimeUTC,F1_M11,P_M11,Q1_M11,Q2_M11,T1_M11,T2_M11,T3_M11,T4_M11,T5_M11,U1_M11,ZSPAN_M11,X0_M11,X2_M11,X1_M11
2022-05-17 19:00:00,,0822.9,5.00,0.00,29.2,27.9,00.0,38.1,31.2,12.9,0000.0,0014.73,0004.76,0003.46
2022-05-17 19:01:00,,0822.9,5.00,0.00,29.3,28.1,00.0,38.1,31.2,12.7,0000.0,0014.81,0004.82,0003.47
2022-05-17 19:02:00,,0822.9,5.00,0.00,29.3,28.1,00.0,38.1,31.3,13.3,0000.0,0014.34,0004.82,0003.48
2022-05-17 19:03:00,,0822.9,5.00,0.00,29.3,26.3,00.0,38.1,31.2,12.9,0000.0,0014.02,0004.84,0003.47
2022-05-17 19:04:00,,0822.9,5.00,0.00,29.2,24.8,00.0,38.1,30.9,12.7,0000.0,0014.15,0004.86,0003.47
2022-05-17 19:05:00,,0822.9,5.00,0.00,29.2,25.3,00.0,38.0,30.9,13.3,0000.0,0013.79,0004.85,0003.48
2022-05-17 19:06:00,,0822.9,5.00,0.00,29.1,25.7,00.0,38.0,30.8,13.1,0000.0,0013.68,0004.85,0003.47
2022-05-17 19:07:00,,0822.9,5.00,0.00,29.1,26.2,00.0,38.0,30.9,13.2,0000.0,0013.49,0004.82,0003.46
2022-05-17 19:08:00,,0823.0,5.00,0.00,29.1,26.6,00.0,38.0,30.9,13.1,0000.0,0013.37,0004.82,0003.47
2022-05-17 19:09:00,,0822.9,5.00,0.00,29.1,27.0,00.0,38.0,31.0,13.1,0000.0,0013.06,0004.84,0003.46
2022-05-17 19:10:00,,0823.0,5.00,0.00,29.1,27.4,00.0,38.0,31.0,12.8,0000.0,0013.28,0004.87,0003.46
2022-05-17 19:11:00,,0822.9,5.00,0.00,29.1,27.6,00.0,38.1,31.1,12.9,0000.0,0013.89,0004.87,0003.44
2022-05-17 19:12:00,,0822.9,4.99,0.00,29.2,27.9,00.0,38.1,31.1,13.2,0000.0,0014.15,0004.88,0003.43
2022-05-17 19:13:00,,0823.0,5.01,0.00,29.2,28.1,00.0,38.1,31.2,13.1,0000.0,0014.99,0004.85,0003.42
2022-05-17 19:14:00,,0823.0,5.00,0.00,29.3,28.2,00.0,38.1,31.3,13.7,0000.0,0014.98,0004.84,0003.41
2022-05-17 19:15:00,,0822.9,5.00,0.00,29.3,27.0,00.0,38.1,31.2,13.8,0000.0,0014.41,0004.78,0003.40
2022-05-17 19:16:00,,0822.8,4.99,0.00,29.2,25.0,00.0,38.0,31.0,13.3,0000.0,0014.37,0004.75,0003.39
2022-05-17 19:17:00,,0822.8,5.00,0.00,29.2,25.1,00.0,38.0,30.9,13.2,0000.0,0014.71,0004.73,0003.39
2022-05-17 19:18:00,,0822.9,5.01,0.00,29.1,25.6,00.0,38.0,30.9,13.1,0000.0,0015.69,0004.74,0003.37
2022-05-17 19:19:00,,0822.9,4.98,0.00,29.1,26.1,00.0,38.0,30.9,13.2,0000.0,0016.11,0004.80,0003.37
2022-05-17 19:20:00,,0822.8,5.01,0.00,29.1,26.6,00.0,38.0,30.9,13.1,0000.0,0016.01,0004.85,0003.37
2022-05-17 19:21:00,,0822.8,5.00,0.00,29.1,27.0,00.0,38.0,30.9,13.1,0000.0,0015.71,0004.84,0003.35
2022-05-17 19:22:00,,0822.8,4.99,0.00,29.1,27.3,00.0,38.0,31.0,12.9,0000.0,0015.50,0004.80,0003.34
2022-05-17 19:23:00,,0822.8,4.99,0.00,29.1,27.6,00.0,38.1,31.1,13.0,0000.0,0015.32,0004.80,0003.34
2022-05-17 19:24:00,,0822.8,4.99,0.00,29.2,27.9,00.0,38.1,31.1,12.8,0000.0,0014.37,0004.81,0003.34
2022-05-17 19:25:00,,0822.8,5.01,0.00,29.2,28.1,00.0,38.1,31.2,12.9,0000.0,0013.82,0004.77,0003.34
2022-05-17 19:26:00,,0822.8,5.00,0.00,29.3,28.2,00.0,38.1,31.3,12.8,0000.0,0014.00,0004.81,0003.34
2022-05-17 19:27:00,,0822.8,5.00,0.00,29.3,28.3,00.0,38.1,31.3,12.6,0000.0,0014.35,0004.83,0003.33
2022-05-17 19:28:00,,0822.7,4.99,0.00,29.3,26.6,00.0,38.1,31.2,12.7,0000.0,0014.26,0004.84,0003.31
2022-05-17 19:29:00,,0822.8,5.01,0.00,29.2,25.0,00.0,38.1,31.0,12.8,0000.0,0013.71,0004.85,0003.31
2022-05-17 19:30:00,,0822.7,4.99,0.00,29.2,25.3,00.0,38.1,31.0,13.0,0000.0,0014.40,0004.85,0003.29
2022-05-17 19:31:00,,0822.7,5.01,0.00,29.2,25.8,00.0,38.1,30.9,13.0,0000.0,0014.63,0004.79,0003.28
2022-05-17 19:32:00,,0822.8,5.01,0.00,29.1,26.3,00.0,38.1,30.9,13.3,0000.0,0014.39,0004.77,0003.27
2022-05-17 19:33:00,,0822.7,4.98,0.00,29.1,26.7,00.0,38.1,30.9,13.0,0000.0,0014.54,0004.83,0003.27
2022-05-17 19:34:00,,0822.7,4.99,0.00,29.1,27.1,00.0,38.1,31.0,12.8,0000.0,0015.06,0004.84,0003.27
2022-05-17 19:35:00,,0822.7,5.01,0.00,29.2,27.5,00.0,38.1,31.1,13.4,0000.0,0015.55,0004.84,0003.26
2022-05-17 19:36:00,,0822.8,5.00,0.00,29.2,27.7,00.0,38.1,31.1,12.6,0000.0,0015.76,0004.94,0003.24
2022-05-17 19:37:00,,0822.7,4.99,0.00,29.2,28.0,00.0,38.1,31.2,13.1,0000.0,0016.14,0004.89,0003.23
2022-05-17 19:38:00,,0822.8,5.01,0.00,29.3,28.2,00.0,38.1,31.3,12.8,0000.0,0016.03,0004.85,0003.23
2022-05-17 19:39:00,,0822.7,5.00,0.00,29.3,28.3,00.0,38.2,31.3,12.4,0000.0,0015.93,0004.85,0003.23
2022-05-17 19:40:00,,0822.8,5.00,0.00,29.3,27.1,00.0,38.1,31.3,12.5,0000.0,0015.56,0004.85,0003.23
2022-05-17 19:41:00,,0822.7,5.00,0.00,29.3,25.1,00.0,38.1,31.1,12.4,0000.0,0014.47,0004.78,0003.24
2022-05-17 19:42:00,,0822.7,5.00,0.00,29.2,25.1,00.0,38.0,31.0,12.4,0000.0,0014.76,0004.79,0003.25
2022-05-17 19:43:00,,0822.7,5.00,0.00,29.2,25.6,00.0,38.1,30.9,13.1,0000.0,0014.74,0004.77,0003.25
2022-05-17 19:44:00,,0822.7,5.00,0.00,29.1,26.1,00.0,38.1,30.9,12.7,0000.0,0014.20,0004.72,0003.26
2022-05-17 19:45:00,,0822.7,5.00,0.00,29.1,26.6,00.0,38.1,30.9,13.1,0000.0,0013.53,0004.74,0003.26
2022-05-17 19:46:00,,0822.7,5.00,0.00,29.1,27.0,00.0,38.1,31.0,13.1,0000.0,0012.98,0004.73,0003.26
2022-05-17 19:47:00,,0822.7,5.00,0.00,29.1,27.4,00.0,38.1,31.1,13.5,0000.0,0012.99,0004.69,0003.27
2022-05-17 19:48:00,,0822.7,5.00,0.00,29.2,27.7,00.0,38.1,31.1,13.6,0000.0,0014.27,0004.74,0003.27
2022-05-17 19:49:00,,0822.8,5.01,0.00,29.2,27.9,00.0,38.1,31.2,13.5,0000.0,0015.04,0004.78,0003.29
2022-05-17 19:50:00,,0822.8,5.00,0.00,29.3,28.1,00.0,38.1,31.3,13.8,0000.0,0015.76,0004.81,0003.30
2022-05-17 19:51:00,,0822.8,4.99,0.00,29.3,28.3,00.0,38.2,31.3,12.7,0000.0,0015.83,0004.86,0003.32
2022-05-17 19:52:00,,0822.8,5.00,0.00,29.4,27.7,00.0,38.2,31.3,12.7,0000.0,0015.97,0004.89,0003.34
2022-05-17 19:53:00,,0822.7,5.00,0.00,29.3,25.6,00.0,38.1,31.1,12.9,0000.0,0016.05,0004.91,0003.36
2022-05-17 19:54:00,,0822.7,4.99,0.00,29.3,25.0,00.0,38.1,31.0,13.8,0000.0,0016.51,0004.94,0003.37
2022-05-17 19:55:00,,0822.8,5.01,0.00,29.2,25.6,00.0,38.1,31.0,14.4,0000.0,0017.86,0004.95,0003.37
2022-05-17 19:56:00,,0822.7,4.99,0.00,29.2,26.0,00.0,38.1,30.9,14.5,0000.0,0018.37,0004.99,0003.38
2022-05-17 19:57:00,,0822.9,5.01,0.00,29.1,26.5,00.0,38.1,31.0,14.5,0000.0,0019.09,0005.07,0003.39
2022-05-17 19:58:00,,0822.7,5.01,0.00,29.1,26.9,00.0,38.1,31.0,14.4,0000.0,0019.35,0005.08,0003.39
2022-05-17 19:59:00,,0822.7,5.00,0.00,29.2,27.3,00.0,38.1,31.1,14.2,0000.0,0017.79,0005.10,0003.40
